sat.trackr.live / text

‹ back to catalog

IRIDE-MS2-HEO-3

NORAD 64568 · 2025-135AS

PAYLOAD ACTIVE UNKNOWN

§ Identity

Operator
Country
IT
Launch date
2025-06-23
Launch site
AFWTR
Launch vehicle
Mass (kg)
RCS (m²)

External: N2YO · Heavens-Above · Gunter

§ Orbital elements

Epoch: 2026-05-25T03:29:07.261152Z

Period
96.53 min
Inclination
97.7706°
Eccentricity
0.0001742
Mean motion
14.91840530 rev/d
Perigee alt
591.0 km
Apogee alt
593.4 km
Semi-major
6,970.3 km
B*
1.5565e-4
RAAN
259.6108°
Arg perigee
63.8731°
Mean anomaly
296.2667°
Rev number
5,044

§ Raw data

IRIDE-MS2-HEO-31 64568U 25135AS  26145.14522293  .00001515  00000+0  15565-3 0  99972 64568  97.7706 259.6108 0001742  63.8731 296.2667 14.91840530 50446

JSON: /api/v1/satellites/64568 · /tle

For live sub-satellite position, see the globe view (requires WebGL).

§ Visibility from observer

Set your observer location to see the next 7 days of passes ≥ 10°. The values pass through the URL so the page stays shareable.

No JS? Fill the form by hand. The geolocation button needs JavaScript.

§ Radio — SatNOGS DB

ModeDescriptionDownlinkUplink
FM Mode S - Transmitter 2.264 GHz

1 transmitter · refreshed weekly from db.satnogs.org